Regional Weather Roundup
Issued by NWS

Home | Current Version | Previous Version | Text Only | Print | Product List | Glossary On
Versions: 1 2 3 4 5 6 7 8 9 10 11 12 13 14 15 16 17 18 19 20 21 22 23 24 25 26 27 28 29 30 31 32 33 34 35 36 37 38 39 40 41 42 43 44 45 46 47 48 49 50
000
ASUS45 KBOI 281710
RWRID

IDAHO REGIONAL WEATHER ROUNDUP
NATIONAL WEATHER SERVICE BOISE ID
1100 AM MDT SUN MAY 28 2017

NOTE: "FAIR" INDICATES FEW OR NO CLOUDS BELOW 12000 FEET
WITH NO SIGNIFICANT WEATHER AND/OR OBSTRUCTIONS TO VISIBILITY

IDZ012-014-281800-
SOUTHWEST IDAHO


CITY           SKY/WX    TMP DP  RH WIND       PRES   REMARKS
BOISE          SUNNY     71  40  32 NW3       30.21F
CALDWELL       SUNNY     69  46  43 SE5       30.21F
MOUNTAIN HOME  SUNNY     71  43  36 E9        30.21F
$$

IDZ016-017-281800-
SOUTHCENTRAL IDAHO


CITY           SKY/WX    TMP DP  RH WIND       PRES   REMARKS
BURLEY         SUNNY     66  44  45 E6        30.25F
JEROME         SUNNY     68  43  40 E8        30.26F
TWIN FALLS     SUNNY     67  43  41 NE5       30.26S
$$

IDZ019>023-281800-
SOUTHEAST IDAHO


CITY           SKY/WX    TMP DP  RH WIND       PRES   REMARKS
IDAHO FALLS    MOSUNNY   63  43  48 W3        30.30F
POCATELLO      MOSUNNY   64  47  53 NW6       30.29F
REXBURG        SUNNY     61  41  47 VRB5      30.30F
$$

IDZ006-010-011-018-031-032-281800-
CENTRAL IDAHO MOUNTAINS


CITY           SKY/WX    TMP DP  RH WIND       PRES   REMARKS
MCCALL         SUNNY     61  39  44 SW3       30.27F
HAILEY         SUNNY     63  45  51 E7        30.31F
STANLEY          N/A     57  36  45 VRB3      30.36F
SALMON         SUNNY     61  39  44 CALM      30.26F
CHALLIS        SUNNY     62  38  40 NE5       30.30F
$$

IDZ002-004-006-007-026-281800-
NORTHERN IDAHO


CITY           SKY/WX    TMP DP  RH WIND       PRES   REMARKS
LEWISTON       SUNNY     72  48  42 NE6       30.15F
LOWELL           N/A     66  43  43 N3        30.19F
COEUR D`ALENE  SUNNY     71  51  49 NE7       30.19F
MULLAN PASS    SUNNY     60  36  40 VRB3      30.33S
$$



USA.gov is the U.S. government's official web portal to all federal, state and local government web resources and services.